TimeCST,TemperatureF,Dew PointF,Humidity,Sea Level PressureIn,VisibilityMPH,Wind Direction,Wind SpeedMPH,Gust SpeedMPH,PrecipitationIn,Events,Conditions,WindDirDegrees,DateUTC
12:15 AM,46.4,21.2,37,29.85,10.0,South,11.5,-,N/A,,Clear,170,2012-12-06 06:15:00
12:35 AM,44.6,21.2,39,29.84,10.0,South,12.7,-,N/A,,Clear,180,2012-12-06 06:35:00
12:55 AM,44.6,21.2,39,29.84,10.0,South,10.4,-,N/A,,Clear,190,2012-12-06 06:55:00
1:15 AM,44.6,21.2,39,29.84,10.0,South,9.2,-,N/A,,Clear,170,2012-12-06 07:15:00
1:35 AM,42.8,21.2,42,29.83,10.0,Calm,Calm,-,N/A,,Clear,0,2012-12-06 07:35:00
1:55 AM,42.8,21.2,42,29.83,10.0,SSW,3.5,-,N/A,,Clear,210,2012-12-06 07:55:00
2:15 AM,42.8,21.2,42,29.83,10.0,South,6.9,-,N/A,,Clear,180,2012-12-06 08:15:00
2:35 AM,41.0,21.2,45,29.82,10.0,South,10.4,-,N/A,,Clear,180,2012-12-06 08:35:00
2:55 AM,39.2,21.2,49,29.83,10.0,SSE,4.6,-,N/A,,Clear,160,2012-12-06 08:55:00
3:15 AM,39.2,21.2,49,29.85,10.0,Calm,Calm,-,N/A,,Clear,0,2012-12-06 09:15:00
3:35 AM,35.6,19.4,52,29.85,10.0,NW,5.8,-,N/A,,Clear,310,2012-12-06 09:35:00
3:55 AM,35.6,19.4,52,29.84,10.0,Calm,Calm,-,N/A,,Clear,0,2012-12-06 09:55:00
4:15 AM,33.8,19.4,56,29.82,10.0,SE,3.5,-,N/A,,Clear,140,2012-12-06 10:15:00
4:35 AM,33.8,19.4,56,29.82,10.0,SE,3.5,-,N/A,,Clear,140,2012-12-06 10:35:00
4:55 AM,33.8,19.4,56,29.82,10.0,Calm,Calm,-,N/A,,Clear,0,2012-12-06 10:55:00
5:15 AM,35.6,21.2,56,29.81,10.0,SE,4.6,-,N/A,,Clear,140,2012-12-06 11:15:00
5:35 AM,35.6,21.2,56,29.81,10.0,SE,4.6,-,N/A,,Clear,140,2012-12-06 11:35:00
5:55 AM,35.6,21.2,56,29.81,10.0,SE,4.6,-,N/A,,Clear,130,2012-12-06 11:55:00
6:15 AM,35.6,21.2,56,29.81,10.0,Calm,Calm,-,N/A,,Clear,0,2012-12-06 12:15:00
6:35 AM,33.8,21.2,60,29.82,10.0,Calm,Calm,-,N/A,,Clear,0,2012-12-06 12:35:00
6:55 AM,33.8,19.4,56,29.81,10.0,Calm,Calm,-,N/A,,Clear,0,2012-12-06 12:55:00
7:15 AM,33.8,19.4,56,29.83,10.0,Calm,Calm,-,N/A,,Clear,0,2012-12-06 13:15:00
7:35 AM,33.8,21.2,60,29.83,10.0,Calm,Calm,-,N/A,,Clear,0,2012-12-06 13:35:00
7:55 AM,32.0,21.2,64,29.83,5.0,Calm,Calm,-,N/A,,Clear,0,2012-12-06 13:55:00
8:15 AM,33.8,21.2,60,29.83,10.0,North,5.8,-,N/A,,Clear,350,2012-12-06 14:15:00
8:35 AM,35.6,24.8,65,29.84,10.0,NNW,4.6,-,N/A,,Clear,330,2012-12-06 14:35:00
8:55 AM,39.2,24.8,56,29.86,9.0,NNW,4.6,-,N/A,,Clear,330,2012-12-06 14:55:00
9:15 AM,42.8,26.6,53,29.87,10.0,NW,5.8,-,N/A,,Clear,320,2012-12-06 15:15:00
9:35 AM,42.8,24.8,49,29.88,10.0,NW,6.9,-,N/A,,Clear,310,2012-12-06 15:35:00
9:55 AM,44.6,26.6,49,29.89,10.0,NNW,12.7,-,N/A,,Clear,340,2012-12-06 15:55:00
10:15 AM,46.4,24.8,43,29.89,10.0,North,12.7,-,N/A,,Clear,350,2012-12-06 16:15:00
10:35 AM,48.2,24.8,40,29.89,10.0,North,19.6,23.0,N/A,,Clear,10,2012-12-06 16:35:00
10:55 AM,48.2,24.8,40,29.89,10.0,NNE,19.6,24.2,N/A,,Clear,20,2012-12-06 16:55:00
11:15 AM,48.2,26.6,43,29.89,10.0,North,25.3,-,N/A,,Clear,10,2012-12-06 17:15:00
11:35 AM,48.2,28.4,46,29.89,10.0,NNE,25.3,31.1,N/A,,Clear,20,2012-12-06 17:35:00
11:55 AM,48.2,28.4,46,29.89,10.0,NNE,20.7,-,N/A,,Clear,20,2012-12-06 17:55:00
12:15 PM,48.2,28.4,46,29.89,10.0,NNE,23.0,26.5,N/A,,Clear,30,2012-12-06 18:15:00
12:35 PM,50.0,30.2,47,29.90,10.0,NNE,21.9,-,N/A,,Scattered Clouds,20,2012-12-06 18:35:00
12:55 PM,51.8,30.2,44,29.89,10.0,NNE,21.9,26.5,N/A,,Partly Cloudy,20,2012-12-06 18:55:00
1:15 PM,53.6,30.2,41,29.87,10.0,NNE,20.7,27.6,N/A,,Clear,30,2012-12-06 19:15:00
1:35 PM,53.6,28.4,38,29.88,10.0,NNE,21.9,26.5,N/A,,Clear,20,2012-12-06 19:35:00
1:55 PM,53.6,28.4,38,29.88,10.0,NNE,25.3,29.9,N/A,,Clear,20,2012-12-06 19:55:00
2:15 PM,53.6,28.4,38,29.87,10.0,NNE,23.0,-,N/A,,Clear,30,2012-12-06 20:15:00
2:35 PM,53.6,24.8,33,29.88,10.0,NNE,19.6,-,N/A,,Clear,20,2012-12-06 20:35:00
2:55 PM,53.6,24.8,33,29.88,10.0,NNE,21.9,26.5,N/A,,Clear,20,2012-12-06 20:55:00
3:15 PM,53.6,23.0,30,29.89,10.0,NNE,17.3,-,N/A,,Clear,30,2012-12-06 21:15:00
3:35 PM,51.8,23.0,33,29.91,10.0,North,21.9,-,N/A,,Clear,10,2012-12-06 21:35:00
3:55 PM,51.8,23.0,33,29.91,10.0,NNE,20.7,24.2,N/A,,Clear,20,2012-12-06 21:55:00
4:15 PM,51.8,23.0,33,29.92,10.0,NNE,16.1,-,N/A,,Partly Cloudy,30,2012-12-06 22:15:00
4:35 PM,50.0,21.2,32,29.93,10.0,NNE,17.3,20.7,N/A,,Mostly Cloudy,30,2012-12-06 22:35:00
4:55 PM,48.2,19.4,32,29.93,10.0,NNE,13.8,19.6,N/A,,Scattered Clouds,30,2012-12-06 22:55:00
5:15 PM,48.2,19.4,32,29.93,10.0,NE,13.8,-,N/A,,Clear,40,2012-12-06 23:15:00
5:35 PM,46.4,19.4,34,29.93,10.0,NNE,11.5,-,N/A,,Partly Cloudy,30,2012-12-06 23:35:00
5:55 PM,46.4,17.6,32,29.93,10.0,NE,12.7,-,N/A,,Clear,40,2012-12-06 23:55:00
6:15 PM,44.6,17.6,34,29.93,10.0,NE,10.4,-,N/A,,Clear,40,2012-12-07 00:15:00
6:35 PM,42.8,17.6,36,29.94,10.0,NNE,8.1,-,N/A,,Clear,30,2012-12-07 00:35:00
6:55 PM,39.2,17.6,42,29.95,10.0,NNE,6.9,-,N/A,,Clear,20,2012-12-07 00:55:00
7:15 PM,39.2,17.6,42,29.95,10.0,NNE,5.8,-,N/A,,Mostly Cloudy,20,2012-12-07 01:15:00
7:35 PM,41.0,17.6,39,29.96,10.0,North,4.6,-,N/A,,Overcast,360,2012-12-07 01:35:00
7:55 PM,42.8,19.4,39,29.96,10.0,NNE,5.8,-,N/A,,Overcast,20,2012-12-07 01:55:00
8:35 PM,44.6,19.4,37,29.97,10.0,NNE,8.1,-,N/A,,Overcast,30,2012-12-07 02:35:00
8:55 PM,44.6,19.4,37,29.97,10.0,NNE,6.9,-,N/A,,Overcast,20,2012-12-07 02:55:00
9:15 PM,44.6,19.4,37,29.96,10.0,NNE,8.1,-,N/A,,Overcast,30,2012-12-07 03:15:00
9:35 PM,44.6,17.6,34,29.96,10.0,NNE,6.9,-,N/A,,Overcast,20,2012-12-07 03:35:00
9:55 PM,39.2,15.8,39,29.96,10.0,North,8.1,-,N/A,,Mostly Cloudy,360,2012-12-07 03:55:00
10:15 PM,35.6,15.8,44,29.97,10.0,North,8.1,-,N/A,,Clear,10,2012-12-07 04:15:00
10:35 PM,33.8,15.8,48,29.97,10.0,North,8.1,-,N/A,,Clear,360,2012-12-07 04:35:00
10:55 PM,33.8,15.8,48,29.97,10.0,North,9.2,-,N/A,,Clear,360,2012-12-07 04:55:00
11:15 PM,33.8,15.8,48,29.96,10.0,North,6.9,-,N/A,,Clear,10,2012-12-07 05:15:00
11:35 PM,35.6,15.8,44,29.96,10.0,North,9.2,-,N/A,,Clear,10,2012-12-07 05:35:00
11:55 PM,35.6,15.8,44,29.97,10.0,NNW,9.2,-,N/A,,Scattered Clouds,340,2012-12-07 05:55:00